EW1953 Weather Reports


Display with metric or nautical units.
time (UTC)temp
F
wind
direction
speed
MPH
gust
MPH
rain 1hr
in
rain 24hr
in
rain mn
in
humidity
%
barometer
mb
20260506024017 48 0.0 0.0 0.02 0.59 0.24 88 1007.4
20260506023039 48 0.0 0.0 0.02 0.59 0.24 88 1007.4
20260506022025 48 0.0 0.0 0.04 0.60 0.24 88 1007.4
20260506021024 48 0.0 0.0 0.04 0.60 0.23 88 1007.4
20260506020027 48 0.0 0.0 0.05 0.60 0.23 88 1007.4
20260506015044 49 0.0 0.0 0.05 0.59 0.22 88 1007.5
20260506014025 49 0.0 0.0 0.05 0.59 0.22 88 1007.5
20260506013025 49 0.0 0.0 0.05 0.58 0.21 88 1007.5
20260506012021 49 0.0 0.0 0.05 0.57 0.20 88 1007.5
20260506011020 49 0.0 0.0 0.05 0.56 0.19 88 1007.5
20260506010018 49 0.0 0.0 0.05 0.55 0.18 88 1007.6
20260506005021 49 0.0 0.0 0.06 0.54 0.17 88 1007.6
20260506004018 49 0.0 0.0 0.06 0.54 0.17 88 1007.7
20260506003017 49 0.0 0.0 0.06 0.54 0.17 88 1007.7
20260506002017 49 0.0 0.0 0.06 0.52 0.15 88 1007.8
20260506001018 49 0.0 0.0 0.06 0.51 0.14 88 1007.9
20260506000024 50 0.0 0.0 0.06 0.51 0.13 88 1008.0
20260505235021 50 0.0 0.0 0.06 0.50 0.12 88 1008.1
20260505234038 50 0.0 0.0 0.06 0.49 0.11 88 1008.1
20260505233022 50 0.0 0.0 0.07 0.48 0.10 88 1008.1
20260505232046 50 0.0 0.0 0.07 0.47 0.09 88 1008.2
20260505231044 50 0.0 0.0 0.08 0.46 0.09 88 1008.2
20260505230020 50 0.0 0.0 0.06 0.45 0.07 88 1008.3
20260505225038 50 0.0 0.0 0.06 0.44 0.06 88 1008.3
20260505224023 50 0.0 0.0 0.06 0.43 0.05 88 1008.3
20260505223020 50 0.0 0.0 0.05 0.41 0.03 88 1008.4
20260505222026 50 0.0 0.0 0.04 0.40 0.02 88 1008.4
20260505221019 50 0.0 0.0 0.03 0.39 0.01 88 1008.5
20260505220019 50 0.0 0.0 0.05 0.39 0.01 88 1008.5
20260505215017 50 0.0 0.0 0.05 0.38 0.38 88 1008.5
20260505214026 50 0.0 0.0 0.06 0.37 0.37 88 1008.5
20260505213025 50 0.0 0.0 0.06 0.36 0.36 88 1008.6
20260505212018 50 0.0 0.0 0.07 0.36 0.36 88 1008.6
20260505211021 50 0.0 0.0 0.08 0.35 0.35 88 1008.7
20260505210020 50 0.0 0.0 0.07 0.34 0.34 88 1008.7
20260505205025 50 0.0 0.0 0.07 0.33 0.33 88 1008.7
20260505204017 50 0.0 0.0 0.07 0.31 0.31 88 1008.8
20260505203037 50 0.0 0.0 0.07 0.31 0.31 88 1008.7
20260505202016 50 0.0 0.0 0.07 0.29 0.29 89 1008.7
20260505201021 50 0.0 0.0 0.06 0.28 0.28 89 1008.6
20260505200018 50 0.0 0.0 0.06 0.27 0.27 89 1008.6
20260505195043 51 0.0 0.0 0.06 0.26 0.26 89 1008.5
20260505194024 51 0.0 0.0 0.06 0.24 0.24 89 1008.4
20260505193020 51 0.0 0.0 0.06 0.24 0.24 89 1008.3
20260505192017 51 0.0 0.0 0.05 0.22 0.22 89 1008.2
20260505191041 51 0.0 0.0 0.04 0.21 0.21 89 1008.2
20260505190019 51 0.0 0.0 0.04 0.20 0.20 89 1008.2
20260505185025 51 0.0 0.0 0.04 0.20 0.20 89 1008.2
20260505184026 51 0.0 0.0 0.04 0.19 0.19 89 1008.2
20260505183022 51 0.0 0.0 0.03 0.18 0.18 90 1008.2
20260505182025 51 0.0 0.0 0.02 0.17 0.17 90 1008.2
20260505181022 51 0.0 0.0 0.02 0.17 0.17 90 1008.2
20260505180027 51 0.0 0.0 0.02 0.17 0.17 90 1008.2
20260505175018 52 0.0 0.0 0.01 0.16 0.16 90 1008.2
20260505174028 52 0.0 0.0 0.00 0.15 0.15 90 1008.3
20260505173018 52 0.0 0.0 0.00 0.15 0.15 90 1008.2
20260505172018 52 0.0 0.0 0.00 0.15 0.15 90 1008.2
20260505171020 51 0.0 0.0 0.00 0.16 0.15 90 1008.3
20260505170117 52 0.0 0.0 0.00 0.16 0.15 90 1008.3
20260505165016 52 0.0 0.0 0.00 0.16 0.15 90 1008.3
20260505164051 52 0.0 0.0 0.00 0.16 0.15 89 1008.3
20260505163016 52 0.0 0.0 0.00 0.16 0.15 89 1008.3
20260505162039 52 0.0 0.0 0.00 0.16 0.15 89 1008.4
20260505161015 52 0.0 0.0 0.00 0.16 0.15 89 1008.4
20260505153025 52 0.0 0.0 0.00 0.16 0.15 88 1008.6
20260505152021 52 0.0 0.0 0.00 0.16 0.15 88 1008.6
20260505151030 52 0.0 0.0 0.00 0.17 0.15 88 1008.6
20260505125034 52 0.0 0.0 0.00 0.17 0.15 88 1009.3
20260505124020 52 0.0 0.0 0.00 0.17 0.15 88 1009.3
20260505123016 52 0.0 0.0 0.00 0.17 0.15 88 1009.3
20260505122021 52 0.0 0.0 0.00 0.17 0.15 87 1009.3
20260505121019 52 0.0 0.0 0.00 0.17 0.15 88 1009.4
20260505120016 52 0.0 0.0 0.00 0.17 0.15 88 1009.4
20260505115016 52 0.0 0.0 0.00 0.17 0.15 88 1009.4
20260505114046 52 0.0 0.0 0.00 0.17 0.15 88 1009.5
20260505113041 52 0.0 0.0 0.00 0.17 0.15 88 1009.6
20260505112018 52 0.0 0.0 0.00 0.17 0.15 87 1009.6
20260505111017 53 0.0 0.0 0.00 0.17 0.15 87 1009.6
20260505102040 52 0.0 0.0 0.01 0.17 0.15 87 1009.6
20260505101026 52 0.0 0.0 0.01 0.17 0.15 88 1009.7
20260505100025 52 0.0 0.0 0.01 0.17 0.15 88 1009.8
20260505095017 53 0.0 0.0 0.01 0.17 0.15 88 1009.8
20260505094023 53 0.0 0.0 0.01 0.17 0.14 87 1009.8
20260505093022 53 0.0 0.0 0.01 0.17 0.14 88 1009.8
20260505092021 53 0.0 0.0 0.02 0.17 0.14 88 1009.8
20260505091021 53 0.0 0.0 0.02 0.17 0.14 88 1009.8
20260505090020 53 0.0 0.0 0.02 0.17 0.14 88 1009.8
20260505085045 53 0.0 0.0 0.02 0.17 0.14 87 1009.8
20260505084020 53 0.0 0.0 0.01 0.16 0.13 87 1009.8
20260505083020 53 0.0 0.0 0.01 0.16 0.13 87 1009.9
20260505082018 53 0.0 0.0 0.00 0.15 0.13 88 1009.8
20260505081016 53 0.0 0.0 0.00 0.15 0.13 88 1009.8
20260505080019 53 0.0 0.0 0.00 0.15 0.13 88 1009.8
20260505075016 53 0.0 0.0 0.00 0.15 0.13 88 1009.8
20260505074020 53 0.0 0.0 0.01 0.15 0.13 88 1009.8
20260505073021 53 0.0 0.0 0.01 0.15 0.13 88 1009.8
20260505072024 54 0.0 0.0 0.01 0.15 0.13 88 1009.8
20260505071036 54 0.0 0.0 0.01 0.15 0.13 88 1009.8
20260505070023 54 0.0 0.0 0.01 0.15 0.13 87 1009.8
20260505065041 54 0.0 0.0 0.01 0.15 0.13 87 1009.9
20260505064020 54 0.0 0.0 0.00 0.14 0.12 88 1009.9
20260505063039 54 0.0 0.0 0.00 0.14 0.12 88 1009.9
20260505062027 55 0.0 0.0 0.00 0.14 0.12 87 1009.9
20260505061058 55 0.0 0.0 0.01 0.14 0.12 87 1009.9
20260505060022 55 0.0 0.0 0.02 0.14 0.12 87 1009.9
20260505055024 55 0.0 0.0 0.03 0.14 0.12 87 1010.0
20260505054018 55 0.0 0.0 0.04 0.14 0.12 87 1010.0
20260505053019 55 0.0 0.0 0.04 0.14 0.12 87 1009.9
20260505052016 55 0.0 0.0 0.06 0.14 0.12 88 1009.9
20260505051027 55 0.0 0.0 0.05 0.13 0.11 88 1009.9
20260505041024 55 0.0 0.0 0.02 0.09 0.06 87 1009.9
20260505040019 55 0.0 0.0 0.03 0.09 0.06 87 1009.9
20260505035017 55 0.0 0.0 0.03 0.09 0.06 88 1009.9
20260505034021 55 0.0 0.0 0.03 0.09 0.06 88 1010.0
20260505033016 55 0.0 0.0 0.03 0.08 0.06 87 1010.0
20260505032041 55 0.0 0.0 0.04 0.08 0.06 87 1010.1
20260505031039 55 0.0 0.0 0.04 0.07 0.05 87 1010.1
20260505030038 55 0.0 0.0 0.02 0.06 0.03 87 1010.2
20260505025016 55 0.0 0.0 0.02 0.06 0.03 87 1010.3